Location: Fennell Observatory
(35.2597°N, 89.5125°W)
Time: 08:40:37
(UTC-05:00)

Daily predictions for brighter satellites

Satellite Brightness Start Highest point End
(mag) Time Altitude Azimuth Time Altitude Azimuth Time Altitude Azimuth
Cosmos 2150 Rocket 4.0 19:27:52 10° SSW 19:33:01 84° ESE 19:38:11 10° NNE
Cosmos 990 Rocket 4.0 19:29:20 10° S 19:34:30 64° ESE 19:39:42 10° NNE
BREEZE-M DEB (TANK) 2.3 19:35:51 10° SW 19:38:14 76° SE 19:42:44 10° NE
Cosmos 1898 Rocket 4.2 19:34:49 10° SSW 19:40:04 63° WNW 19:45:20 10° N
RESURS DK-1 3.3 19:37:16 10° N 19:40:55 29° ENE 19:44:31 10° ESE
Lacrosse 5 2.1 19:41:22 10° SW 19:46:26 78° NW 19:51:31 10° NE
Cosmos 1125 Rocket 4.4 19:44:31 10° SSE 19:48:46 26° E 19:53:03 10° NE
Cosmos 2344 3.7 19:41:32 10° SSW 19:49:15 90° WNW 19:57:34 10° NNE
BREEZE-M DEB (TANK) 3.2 19:48:39 10° S 19:51:04 29° SE 19:56:16 10° ENE
CZ-2D R/B 4.5 19:48:48 10° SE 19:51:52 23° ENE 19:54:59 10° NNE
FREGAT/IRIS 2.7 19:49:37 10° S 19:52:40 84° WSW 19:55:44 10° NNW
Cosmos 1934 Rocket 3.9 19:50:23 10° S 19:56:30 75° E 20:02:35 10° N
Cosmos 1805 4.0 19:53:05 10° SSE 19:56:31 30° E 19:59:58 10° NNE
Geosat 4.3 19:54:52 10° NE 19:59:41 45° ESE 20:04:28 10° S
Okean 3 Rocket 4.2 19:56:56 10° NNE 20:00:56 33° ENE 20:04:56 10° SE
Tiangong 1 1.4 19:58:17 10° NW 20:01:09 45° NNE 20:03:03 18° E
HJ-1C 3.3 19:58:31 10° SSE 20:01:53 68° ENE 20:05:16 10° N
Yuri Rocket 4.1 19:59:20 10° WSW 20:03:13 31° S 20:06:14 14° SE
Cosmos 1437 Rocket 4.0 19:59:24 10° SSW 20:03:15 48° W 20:07:11 10° N
Meteor 1-22 Rocket 4.4 19:57:31 10° S 20:03:17 89° W 20:09:19 10° N
Cosmos 1844 Rocket 4.4 20:00:08 10° SW 20:05:18 36° WNW 20:10:29 10° N
In-Cosmos 22 4.3 20:00:26 10° N 20:05:33 48° ENE 20:10:37 10° SSE
SeaSat 1 2.4 20:05:39 10° SSE 20:10:34 85° ENE 20:15:32 10° NNW
SJ-6B 3.4 20:06:58 10° S 20:10:38 56° W 20:14:18 10° NNW
Cosmos 1378 3.7 20:07:35 10° NNW 20:11:18 59° W 20:14:57 10° S
Cosmos 1470 4.5 20:12:27 16° ENE 20:12:27 16° ENE 20:14:13 10° NE
SL-27 R/B 2.4 20:09:29 10° NNW 20:13:05 81° ENE 20:16:42 10° SSE
Cosmos 1812 Rocket 4.5 20:09:26 10° SSW 20:13:45 53° W 20:18:03 10° N
USA 186 3.2 20:15:09 13° NE 20:15:09 13° NE 20:15:39 10° NNE
H-2A R/B (2) 2.6 20:15:11 10° WSW 20:17:51 33° S 20:20:58 18° ESE
Cosmos 1833 Rocket 3.9 20:14:47 10° N 20:19:17 24° ENE 20:21:15 20° E
Cosmos 2278 Rocket 2.6 20:14:08 10° SSW 20:19:46 68° WNW 20:25:27 10° NNE
FENGYUN 3A 3.9 20:14:31 10° S 20:19:55 74° WSW 20:25:19 10° NNW
Meteor 1-29 3.8 20:17:38 10° NE 20:20:41 28° E 20:21:00 27° ESE
GP-B 3.8 20:19:19 17° SE 20:22:08 33° E 20:26:07 10° NNE
Cosmos 1818 4.3 20:17:27 10° NNW 20:22:27 36° NE 20:25:01 23° ESE
Meteor 1-4 Rocket 2.5 20:19:44 10° S 20:23:07 52° E 20:26:30 10° NNE
Cosmos 1076 Rocket 4.0 20:19:19 10° NNE 20:23:15 36° E 20:25:13 23° SE
COSMOS 2487 4.2 20:21:42 10° NNE 20:23:40 17° NE 20:23:40 17° NE
Resurs 01 Rocket 1.6 20:22:11 10° SSE 20:26:35 87° WSW 20:31:02 10° NNW
CZ-3B DEB 4.2 20:15:45 10° WSW 20:27:08 43° NW 20:32:36 10° NNE
Helios 1B rocket 2.5 20:24:50 10° NNE 20:28:52 51° E 20:32:51 10° S
Cosmos 1544 3.0 20:25:42 10° S 20:29:20 89° E 20:33:01 10° N
Delta 2 Rocket 3.7 20:25:21 10° W 20:30:04 61° SSW 20:32:00 30° SE
H-2A R/B 3.1 20:28:43 10° S 20:32:34 67° W 20:36:29 10° NNW
Cosmos 1766 Rocket 4.2 20:29:18 10° NNE 20:33:25 35° E 20:34:17 32° ESE
Cosmos 1758 3.2 20:30:13 10° S 20:34:11 83° E 20:38:11 10° N
Cosmos 2297 3.6 20:28:48 10° S 20:34:27 70° ESE 20:40:10 10° NNE
ATLAS 5 CENTAUR R/B 2.0 20:31:01 10° S 20:35:22 44° ESE 20:40:02 10° NE
Helios 1A 3.1 20:33:37 28° SE 20:35:30 52° ENE 20:39:35 10° N
Cosmos 1605 Rocket 4.3 20:32:00 10° SSW 20:38:13 73° W 20:44:34 10° N
GPS 2-05 Rocket1 3.0 20:35:09 10° WSW 20:38:39 56° SSE 20:39:10 50° SE
Cosmos 2100 Rocket 4.2 20:33:25 10° SSE 20:39:22 46° E 20:45:24 10° NNE
Cosmos 468 4.5 20:34:31 10° N 20:39:43 65° ENE 20:42:40 26° SE
Cosmos 2098 Rocket 4.3 20:33:48 10° S 20:40:46 80° E 20:48:24 10° N
Cosmos 1953 2.3 20:38:50 10° S 20:42:54 84° W 20:46:59 10° N
Cosmos-2242 3.1 20:44:00 40° SE 20:45:01 49° E 20:49:08 10° NNE
Cosmos 1939 Rocket 3.8 20:46:50 32° NE 20:46:50 32° NE 20:50:01 10° N
Cosmos 372 Rocket 3.8 20:45:48 10° SSW 20:50:53 80° ESE 20:56:02 10° NNE
ALOS 4.2 20:47:28 10° SSW 20:51:29 29° W 20:55:32 10° NW
Cosmos 2082 Rocket 2.4 20:47:40 10° N 20:53:13 51° ENE 20:54:34 42° ESE
Cosmos 1867 3.7 20:49:33 10° SW 20:54:59 75° WNW 21:00:28 10° NNE
Cosmos 1802 Rocket 4.0 20:56:20 28° SSE 20:59:20 52° E 21:05:16 10° NNE
Cosmos 1271 Rocket 3.2 21:00:43 50° NNE 21:00:43 50° NNE 21:03:50 10° NNE
CZ-4B DEB 4.3 21:03:42 28° N 21:03:42 28° N 21:05:20 10° N
USA 215 3.2 20:56:50 10° NE 21:03:25 89° NW 21:09:56 10° SW
Cosmos 158 Rocket 3.9 20:59:07 10° N 21:04:12 60° ENE 21:04:42 57° E
Lacrosse 5 rocket 3.4 21:05:11 10° N 21:06:37 15° NNE 21:06:37 15° NNE
ISS -1.7 21:06:01 10° SW 21:07:13 21° SW 21:07:13 21° SW
Cosmos 2061 Rocket 3.9 21:04:40 10° S 21:11:00 74° E 21:17:25 10° N
OAO 1 4.5 21:13:49 10° W 21:19:16 69° SSW 21:19:31 68° S
Timation 2 Rocket 3.8 21:13:12 10° NNW 21:19:29 70° ENE 21:20:08 64° ESE
Envisat 3.0 21:20:14 60° S 21:21:09 79° WSW 21:26:15 10° NNW
H-2A R/B 4.4 21:24:05 11° NNE 21:24:05 11° NNE 21:24:22 10° NNE
Aurora 2 Rocket 4.5 21:16:55 10° SW 21:20:55 24° SSW 21:20:55 24° SSW
Cosmos 1674 3.7 21:19:27 10° NNW 21:22:20 44° NW 21:22:20 44° NW
Cosmos 1408 Rocket 4.2 21:22:50 10° NNW 21:27:12 53° W 21:27:37 50° WSW
Cosmos 1459 Rocket 4.3 21:27:30 10° SSW 21:33:44 66° W 21:39:55 10° N
Cosmos 2173 Rocket 4.3 21:32:17 10° SSW 21:38:20 62° W 21:44:31 10° N
ERS-1 Rocket 3.7 21:43:25 47° N 21:43:25 47° N 21:46:58 10° NNW
Cosmos 1833 Rocket 3.7 21:58:04 10° NW 22:02:59 41° W 22:02:59 41° W
ATLAS 5 CENTAUR R/B 4.2 22:16:44 10° W 22:20:16 20° NW 22:24:02 10° N
Cosmos 2082 Rocket 4.4 22:33:03 10° WNW 22:36:28 18° W 22:36:28 18° W
